Waarnemingen

Advertentie
Mijn weer
Reims-Prunay, Frankrijk (7072): temperatuur & dauwpunt: 20.03.2017 00:00:00 - 26.03.2017 00:00:00 (CET)Reims-Prunay, Frankrijk (7072): temperatuur 5cm: 20.03.2017 00:00:00 - 26.03.2017 00:00:00 (CET)Reims-Prunay, Frankrijk (7072): temperatuur -20cm & temperatuur -100cm: 20.03.2017 00:00:00 - 26.03.2017 00:00:00 (CET)Reims-Prunay, Frankrijk (7072): windsnelheid & windstoten: 20.03.2017 00:00:00 - 26.03.2017 00:00:00 (CET)Reims-Prunay, Frankrijk (7072): windrichting: 20.03.2017 00:00:00 - 26.03.2017 00:00:00 (CET)Reims-Prunay, Frankrijk (7072): luchtdruk: 20.03.2017 00:00:00 - 26.03.2017 00:00:00 (CET)Reims-Prunay, Frankrijk (7072): zicht: 20.03.2017 00:00:00 - 26.03.2017 00:00:00 (CET)Reims-Prunay, Frankrijk (7072): Zonneschijnduur: 20.03.2017 00:00:00 - 26.03.2017 00:00:00 (CET)Reims-Prunay, Frankrijk (7072): neerslag: 20.03.2017 00:00:00 - 26.03.2017 00:00:00 (CET)
Datum & Tijd tt [°C] td [°C] tt 5cm [°C] tt -20cm [°C] tt -100cm [°C] ff [km/u] ff [kn] fx [km/u] fx [kn] dd ppp [hPa] vv [km] sd [min] rr [mm]
26.03.2017 00:00:00 6,0 0,3 0,2 9,4 8,4 0 0 6 3 N 1020,0 20 0 0,0
25.03.2017 23:00:00 6,7 0,4 3,4 9,5 8,4 3 2 20 11 ZZO 1020,2 20 0 0,0
25.03.2017 22:00:00 8,5 0,7 4,5 9,5 8,4 6 3 18 10 ONO 1020,3 20 0 0,0
25.03.2017 21:00:00 10,5 1,3 7,7 9,6 8,4 16 8 25 13 ONO 1020,1 20 0 0,0
25.03.2017 20:00:00 11,4 1,9 9,4 9,6 8,5 17 9 30 16 ONO 1019,2 20 0 0,0
25.03.2017 19:00:00 12,6 2,7 11,1 9,5 8,4 23 12 42 23 ONO 1018,5 20 40 0,0
25.03.2017 18:00:00 15,3 2,8 15,7 9,4 8,4 28 15 54 29 ONO 1018,2 20 60 0,0
25.03.2017 17:00:00 16,8 2,8 18,4 9,2 8,4 35 19 53 29 ONO 1018,2 20 60 0,0
25.03.2017 16:00:00 17,3 2,8 19,5 9,0 8,4 31 17 53 28 ONO 1019,0 20 60 0,0
25.03.2017 15:00:00 17,3 2,5 20,1 8,7 8,4 38 20 51 28 ONO 1019,5 20 60 0,0
25.03.2017 14:00:00 17,0 3,6 20,2 8,5 8,4 29 16 45 24 ONO 1020,3 20 60 0,0
25.03.2017 13:00:00 16,2 3,9 18,2 8,4 8,4 28 15 44 24 ONO 1021,1 19 60 0,0
25.03.2017 12:00:00 14,5 3,9 16,5 8,2 8,4 29 16 45 25 ONO 1021,8 20 60 0,0
25.03.2017 11:00:00 12,8 3,7 14,8 8,2 8,4 29 16 42 23 O 1022,5 18 60 0,0
25.03.2017 10:00:00 11,0 4,9 12,5 8,2 8,4 19 10 31 17 O 1023,5 15 60 0,0
25.03.2017 09:00:00 8,7 4,7 9,6 8,4 8,4 17 9 32 17 ONO 1024,1 12 60 0,0
25.03.2017 08:00:00 6,6 3,4 2,6 8,4 8,4 6 3 17 9 NO 1024,8 10 60 0,0
25.03.2017 07:00:00 5,1 2,4 1,8 8,6 8,4 0 0 12 6 N 1025,1 10 2 0,0
25.03.2017 06:00:00 5,6 2,8 2,4 8,7 8,4 7 4 14 7 N 1025,0 10 0 0,0
25.03.2017 05:00:00 5,4 2,7 2,5 8,8 8,4 8 4 19 10 NNO 1025,0 9 0 0,0
25.03.2017 04:00:00 6,3 3,1 4,4 8,9 8,4 14 8 19 11 NNO 1025,4 10 0 0,0
25.03.2017 03:00:00 6,8 3,6 3,0 9,0 8,4 11 6 16 9 NNO 1026,0 11 0 0,0
25.03.2017 02:00:00 6,8 3,9 3,9 9,0 8,4 8 4 19 11 NO 1026,7 12 0 0,0
25.03.2017 01:00:00 7,5 4,1 2,3 9,1 8,4 15 8 19 11 NNO 1026,6 13 0 0,0
25.03.2017 00:00:00 6,4 3,9 1,7 9,2 8,4 3 2 8 5 ONO 1026,2 13 0 0,0
24.03.2017 23:00:00 7,4 4,5 4,8 9,3 8,4 5 3 19 11 NNO 1026,4 14 0 0,0
24.03.2017 22:00:00 9,9 5,3 7,0 9,2 8,4 14 7 23 12 NO 1026,9 19 0 0,0
24.03.2017 21:00:00 9,3 5,7 7,5 9,3 8,4 14 8 20 11 ONO 1026,6 16 0 0,0
24.03.2017 20:00:00 10,1 6,4 8,5 9,2 8,4 14 7 21 11 ONO 1025,6 12 0 0,0
24.03.2017 19:00:00 11,1 7,4 9,7 9,1 8,4 14 8 18 10 ONO 1025,1 10 6 0,0
24.03.2017 18:00:00 12,4 8,5 12,2 9,0 8,4 10 5 20 11 ONO 1024,3 10 0 0,0
24.03.2017 17:00:00 13,4 8,7 13,9 8,9 8,4 12 6 22 12 O 1024,3 11 4 0,0
24.03.2017 16:00:00 13,4 7,8 14,5 8,8 8,4 11 6 24 13 NO 1024,4 12 19 0,0
24.03.2017 15:00:00 12,8 7,5 12,3 8,7 8,4 17 9 28 15 O 1024,5 13 1 0,0
24.03.2017 14:00:00 11,4 7,3 11,7 8,7 8,4 18 10 32 18 O 1024,6 12 0 0,0
24.03.2017 13:00:00 11,0 7,3 11,7 8,6 8,4 22 12 35 19 O 1024,9 10 0 0,0
24.03.2017 12:00:00 10,7 7,2 10,3 8,6 8,4 24 13 32 17 ONO 1024,5 10 0 0,0
24.03.2017 11:00:00 10,5 7,7 9,8 8,5 8,4 16 8 23 13 O 1024,6 11 0 0,0
24.03.2017 10:00:00 9,9 7,8 8,4 8,5 8,4 12 6 17 9 O 1024,5 10 0 0,0
24.03.2017 09:00:00 8,7 7,3 7,9 8,6 8,4 10 5 16 8 ONO 1023,6 8 0 0,0
24.03.2017 08:00:00 8,8 7,2 5,6 8,7 8,4 6 3 15 8 NO 1022,4 8 15 0,0
24.03.2017 07:00:00 6,2 5,9 5,1 8,7 8,4 4 2 8 5 ONO 1021,7 4,1 0 0,0
24.03.2017 06:00:00 6,5 5,9 4,8 8,8 8,4 0 0 13 7 N 1020,8 4,6 0 0,0
24.03.2017 05:00:00 6,8 6,4 3,0 8,9 8,4 10 5 13 7 ONO 1019,7 6 0 0,0
24.03.2017 04:00:00 6,6 6,2 4,7 8,9 8,4 6 3 10 6 ONO 1019,3 6 0 0,0
24.03.2017 03:00:00 7,1 6,7 4,9 9,0 8,4 7 4 12 6 O 1019,4 7 0 0,0
24.03.2017 02:00:00 6,3 5,7 4,8 9,0 8,4 6 4 18 10 OZO 1019,2 2,4 0 0,0
24.03.2017 01:00:00 7,4 7,1 5,1 9,0 8,4 7 4 13 7 ONO 1018,4 4,2 0 0,2
24.03.2017 00:00:00 8,2 7,8 6,1 9,0 8,4 3 1 6 4 NW 1017,7 6 0 0,0
23.03.2017 23:00:00 9,3 8,2 8,1 9,0 8,4 7 4 19 11 N 1017,3 8 0 1,4
23.03.2017 22:00:00 10,2 8,1 8,7 9,0 8,4 3 1 8 5 Z 1016,9 16 0 0,0
23.03.2017 21:00:00 10,8 7,3 9,1 9,0 8,4 2 1 17 9 WZW 1015,0 20 0 0,0
23.03.2017 20:00:00 12,3 7,2 10,0 8,9 8,4 12 7 19 10 NNO 1013,8 20 0 0,0
23.03.2017 19:00:00 11,2 7,5 9,9 8,8 8,4 9 5 13 7 NNO 1012,8 20 0 0,0
23.03.2017 18:00:00 13,4 8,9 13,4 8,7 8,4 5 3 14 7 NO 1012,2 20 0 0,0
23.03.2017 17:00:00 14,3 7,8 14,6 8,6 8,4 10 6 22 12 O 1012,0 20 0 0,0
23.03.2017 16:00:00 14,4 7,9 14,4 8,4 8,4 16 9 31 17 OZO 1011,9 20 0 0,0
23.03.2017 15:00:00 14,3 6,6 14,4 8,2 8,4 24 13 36 19 ZO 1011,7 20 0 0,0
23.03.2017 14:00:00 15,2 8,2 16,0 8,0 8,4 22 12 44 24 OZO 1011,2 20 29 0,0
23.03.2017 13:00:00 15,4 8,2 12,5 7,8 8,4 22 12 35 19 OZO 1011,3 20 27 0,0
23.03.2017 12:00:00 12,5 9,0 11,0 7,7 8,4 21 11 34 18 OZO 1011,4 19 24 0,2
23.03.2017 11:00:00 12,5 7,2 11,5 7,6 8,4 24 13 35 19 OZO 1011,3 20 48 0,0
23.03.2017 10:00:00 10,1 6,2 9,6 7,7 8,4 24 13 32 17 OZO 1011,3 19 37 0,0
23.03.2017 09:00:00 7,7 5,3 7,2 7,8 8,4 20 11 26 14 OZO 1011,0 15 60 0,0
23.03.2017 08:00:00 3,3 3,2 -1,0 7,9 8,4 6 3 13 7 ZO 1011,1 4,6 37 0,0
23.03.2017 07:00:00 0,3 -0,1 -1,8 8,0 8,4 9 5 13 7 OZO 1011,0 3,7 0 0,0
23.03.2017 06:00:00 1,4 1,0 -1,0 8,1 8,4 8 5 15 8 ZO 1011,0 6 0 0,0
23.03.2017 05:00:00 1,5 0,8 -0,8 8,2 8,4 7 4 16 9 OZO 1010,8 6 0 0,0
23.03.2017 04:00:00 1,7 1,3 -1,0 8,4 8,4 6 4 11 6 ZO 1011,0 12 0 0,0
23.03.2017 03:00:00 1,6 1,0 -0,6 8,5 8,4 8 5 12 7 OZO 1011,3 12 0 0,0
23.03.2017 02:00:00 1,4 0,8 -1,0 8,6 8,4 10 5 12 6 OZO 1011,7 12 0 0,0
23.03.2017 01:00:00 2,7 1,8 0,3 8,7 8,4 7 4 16 8 ZO 1012,1 17 0 0,0
23.03.2017 00:00:00 3,0 2,0 2,0 8,8 8,4 14 8 16 9 OZO 1011,7 20 0 0,0
22.03.2017 23:00:00 4,0 2,3 2,8 8,9 8,4 13 7 24 13 OZO 1011,8 20 0 0,0
22.03.2017 22:00:00 4,5 3,0 1,4 8,9 8,4 14 8 18 10 ZO 1011,4 20 0 0,0
22.03.2017 21:00:00 4,4 2,7 1,6 9,0 8,4 9 5 14 8 OZO 1011,5 20 0 0,0
22.03.2017 20:00:00 6,5 4,2 5,6 8,9 8,4 11 6 23 12 OZO 1010,9 20 0 0,0
22.03.2017 19:00:00 8,0 4,4 6,7 8,9 8,4 14 8 22 12 OZO 1010,8 20 27 0,0
22.03.2017 18:00:00 9,7 2,3 8,8 8,8 8,4 13 7 30 16 ZO 1010,7 20 18 0,0
22.03.2017 17:00:00 11,5 1,7 11,2 8,7 8,4 18 10 31 17 ZO 1010,4 20 35 0,0
22.03.2017 16:00:00 11,1 2,6 11,9 8,5 8,4 17 9 31 17 ZO 1010,5 20 21 0,0
22.03.2017 15:00:00 11,8 3,3 12,0 8,3 8,3 20 11 31 17 ZO 1011,0 20 30 0,0
22.03.2017 14:00:00 10,4 3,9 11,6 8,1 8,4 15 8 33 18 ZZO 1011,5 20 21 0,0
22.03.2017 13:00:00 10,7 4,2 11,0 8,0 8,4 22 12 33 18 ZZO 1012,2 20 38 0,0
22.03.2017 12:00:00 9,5 3,9 9,1 7,9 8,4 19 10 36 19 Z 1012,6 20 52 0,0
22.03.2017 11:00:00 8,0 4,8 7,1 7,9 8,4 21 11 29 16 ZZO 1013,3 20 32 0,0
22.03.2017 10:00:00 5,2 4,8 5,1 7,9 8,3 17 9 25 13 ZZO 1013,8 19 9 0,0
22.03.2017 09:00:00 4,4 4,4 3,7 8,0 8,4 16 8 24 13 ZZO 1013,7 6 0 0,0
22.03.2017 08:00:00 3,4 3,4 1,9 8,1 8,4 11 6 18 10 Z 1013,8 3,3 0 0,0
22.03.2017 07:00:00 2,0 2,0 0,1 8,2 8,4 11 6 19 10 OZO 1013,4 0,3 0 0,0
22.03.2017 06:00:00 1,7 1,7 -0,4 8,3 8,3 7 4 11 6 ZO 1013,6 2,6 0 0,0
22.03.2017 05:00:00 3,7 3,7 3,1 8,5 8,3 10 5 21 12 ZO 1013,8 0,3 0 0,0
22.03.2017 04:00:00 3,2 3,2 1,3 8,6 8,3 14 8 19 11 OZO 1014,0 0,3 0 0,0
22.03.2017 03:00:00 1,7 1,6 -2,2 8,7 8,3 14 8 19 10 O 1014,5 0,2 0 0,0
22.03.2017 02:00:00 -0,2 -0,9 -4,0 8,9 8,3 9 5 12 6 O 1015,1 17 0 0,0
22.03.2017 01:00:00 0,9 0,3 -3,1 9,1 8,3 10 6 12 7 O 1015,1 20 0 0,0
22.03.2017 00:00:00 0,7 0,0 -1,6 9,2 8,3 9 5 11 6 O 1015,4 20 0 0,0
21.03.2017 23:00:00 0,7 0,1 -1,5 9,3 8,3 9 5 10 5 O 1015,5 17 0 0,0
21.03.2017 22:00:00 1,2 0,5 -1,0 9,5 8,3 0 0 4 2 N 1015,7 20 0 0,0
21.03.2017 21:00:00 2,6 1,3 -1,9 9,5 8,3 4 2 5 3 O 1015,2 20 0 0,0
21.03.2017 20:00:00 4,7 2,9 -0,5 9,5 8,3 0 0 4 2 N 1014,8 20 0 0,0
21.03.2017 19:00:00 7,0 3,6 4,5 9,5 8,3 2 1 11 6 N 1014,2 20 6 0,0
21.03.2017 18:00:00 8,6 3,8 8,3 9,5 8,3 9 5 16 9 N 1013,8 20 0 0,0
21.03.2017 17:00:00 9,3 4,1 6,2 9,5 8,3 9 5 21 11 NNW 1013,2 20 0 0,0
21.03.2017 16:00:00 8,1 2,5 6,2 9,4 8,2 20 11 40 21 NNW 1013,6 19 0 0,0
21.03.2017 15:00:00 9,7 4,5 9,8 9,4 8,2 11 6 20 11 NW 1013,0 10 0 0,0
21.03.2017 14:00:00 9,6 5,8 8,6 9,3 8,2 9 5 17 9 W 1013,0 20 0 0,0
21.03.2017 13:00:00 8,9 6,2 7,9 9,3 8,2 8 4 17 9 WNW 1013,1 20 0 0,4
21.03.2017 12:00:00 7,9 5,9 6,8 9,3 8,2 10 6 32 17 NW 1013,0 15 0 0,6
21.03.2017 11:00:00 9,8 5,0 10,2 9,2 8,2 14 8 29 16 WNW 1012,4 20 0 0,0
21.03.2017 10:00:00 9,8 6,7 9,4 9,3 8,3 16 9 24 13 W 1012,0 20 0 0,0
21.03.2017 09:00:00 9,2 7,0 8,4 9,3 8,2 14 8 23 13 W 1011,7 20 0 0,0
21.03.2017 08:00:00 8,9 7,5 7,5 9,3 8,2 8 4 18 10 W 1011,2 20 0 0,0
21.03.2017 07:00:00 8,6 7,5 7,3 9,4 8,2 10 5 18 10 W 1010,9 20 0 0,0
21.03.2017 06:00:00 9,3 8,7 8,8 9,4 8,2 7 4 19 10 WNW 1010,7 3,9 0 0,8
21.03.2017 05:00:00 9,3 8,5 8,7 9,4 8,2 14 8 28 15 WZW 1010,4 8 0 0,2
21.03.2017 04:00:00 9,5 8,3 8,8 9,4 8,2 16 9 31 17 WZW 1010,0 15 0 0,0
21.03.2017 03:00:00 9,7 7,8 9,2 9,4 8,2 18 10 31 17 ZW 1010,3 20 0 0,0
21.03.2017 02:00:00 10,1 7,7 9,6 9,5 8,2 20 11 33 18 WZW 1010,4 20 0 0,0
21.03.2017 01:00:00 10,7 6,6 10,1 9,5 8,2 19 10 38 20 WZW 1010,5 20 0 0,0
21.03.2017 00:00:00 11,0 6,3 10,4 9,5 8,2 20 11 34 19 WZW 1010,5 20 0 0,0
20.03.2017 23:00:00 11,0 6,3 10,5 9,6 8,2 13 7 40 21 ZW 1010,7 20 0 0,0
20.03.2017 22:00:00 11,1 6,2 9,8 9,6 8,2 19 11 32 18 ZW 1010,7 20 0 0,0
20.03.2017 21:00:00 11,3 6,0 10,7 9,6 8,2 21 12 32 18 ZW 1010,9 20 0 0,0
20.03.2017 20:00:00 11,2 5,9 10,6 9,6 8,2 17 9 32 17 ZW 1011,3 20 0 0,0
20.03.2017 19:00:00 11,4 5,7 10,8 9,6 8,2 18 10 31 17 WZW 1011,0 20 0 0,0
20.03.2017 18:00:00 11,5 5,6 11,1 9,6 8,2 22 12 38 21 WZW 1011,0 20 0 0,0
20.03.2017 17:00:00 11,7 5,3 11,5 9,6 8,2 23 12 44 24 WZW 1011,1 20 0 0,0
20.03.2017 16:00:00 12,0 5,8 11,8 9,5 8,1 23 12 38 21 WZW 1010,9 20 0 0,0
20.03.2017 15:00:00 12,4 6,2 12,1 9,5 8,1 22 12 39 21 WZW 1011,2 20 0 0,0
20.03.2017 14:00:00 12,2 5,8 12,3 9,4 8,1 22 12 34 19 ZW 1011,5 20 0 0,0
20.03.2017 13:00:00 11,4 5,0 11,4 9,4 8,1 22 12 37 20 ZW 1012,1 20 0 0,0
20.03.2017 12:00:00 11,3 6,0 11,6 9,3 8,1 22 12 32 17 WZW 1012,5 20 0 0,0
20.03.2017 11:00:00 11,1 7,0 12,0 9,3 8,1 22 12 32 18 WZW 1013,0 20 0 0,0
20.03.2017 10:00:00 11,0 7,9 10,6 9,4 8,1 14 8 22 12 ZZW 1012,8 20 0 0,0
20.03.2017 09:00:00 10,5 7,9 10,1 9,4 8,1 15 8 23 13 ZW 1013,3 20 0 0,0
20.03.2017 08:00:00 10,3 7,9 9,6 9,4 8,1 13 7 19 11 ZW 1013,5 20 0 0,0
20.03.2017 07:00:00 10,1 7,7 9,5 9,5 8,1 10 5 17 9 ZW 1013,3 20 0 0,0
20.03.2017 06:00:00 10,1 7,7 9,4 9,5 8,1 9 5 22 12 ZW 1013,2 20 0 0,0
20.03.2017 05:00:00 10,1 8,0 9,3 9,5 8,1 11 6 19 10 ZZW 1013,2 20 0 0,0
20.03.2017 04:00:00 10,2 7,8 9,5 9,6 8,1 9 5 16 9 ZW 1013,7 20 0 0,0
20.03.2017 03:00:00 10,3 7,7 9,3 9,6 8,1 11 6 17 9 ZW 1014,0 20 0 0,0
20.03.2017 02:00:00 10,0 7,1 6,9 9,7 8,1 8 5 15 8 ZW 1014,4 20 0 0,0
20.03.2017 01:00:00 9,1 5,5 7,0 9,7 8,1 8 4 13 7 ZW 1014,4 20 0 0,0
20.03.2017 00:00:00 10,8 5,1 9,7 9,7 8,1 11 6 31 17 W 1014,6 20 0 0,0

tt = temperatuur
td = dauwpunt
tt 5cm = temperatuur 5cm
tt -20cm = temperatuur -20cm
tt -100cm = temperatuur -100cm
ff = windsnelheid
fx = windstoten
dd = windrichting
ppp = luchtdruk
vv = zicht
sd = Zonneschijnduur
rr = neerslag

Weerstations in de omgeving